Temperature
21 22 21 21 21 21 21 21 21 21 21 21 21 21 20 20 20 20 20 20 20 20 20 20 20 20 20 20 20 20 19 19 19 19 19 18 18 18 18 18 18 18 18
22 22 21 21 21 21 21 21 21 21 21 21 21 21 21 20 20 20 20 20 20 20 20 20 20 20 20 20 20 20 20 19 19 19 19 19 18 18 18 18 18 18 18
23 22 22 21 21 21 21 21 21 21 21 21 21 21 21 21 20 20 20 20 20 20 20 20 20 20 20 20 20 20 20 19 19 19 19 18 18 18 18 19 18 18 18
23 22 22 22 21 21 21 21 21 21 21 21 21 21 21 21 21 20 20 20 20 20 20 20 20 20 20 20 20 20 20 19 19 19 18 18 18 18 18 19 19 18 18
23 23 22 22 21 21 21 21 21 21 21 21 21 21 20 20 20 20 20 20 20 20 20 20 20 20 20 20 20 20 19 19 19 18 18 18 18 18 18 18 19 19 19
23 23 22 22 22 21 21 21 21 21 21 21 21 20 20 20 20 20 20 20 20 20 20 20 20 20 20 20 20 20 19 19 19 18 18 18 18 18 18 18 18 19 19
24 23 22 22 22 22 21 21 21 21 21 21 21 20 20 20 20 20 20 20 20 20 20 20 20 20 20 20 20 20 19 19 19 18 18 18 18 18 18 18 18 18 19
24 23 23 22 22 22 21 21 21 21 21 21 21 20 20 20 20 20 20 20 19 19 19 19 19 19 19 19 19 19 19 19 19 19 18 18 18 18 18 18 18 18 18
24 24 23 23 22 22 22 21 21 21 21 21 21 21 20 20 20 20 20 20 19 19 19 19 19 19 19 19 19 19 19 19 19 19 19 18 18 18 18 18 18 18 18
24 24 23 23 23 22 22 22 21 21 21 21 21 21 20 20 20 20 19 19 19 19 19 19 19 19 19 19 19 19 19 19 19 19 19 18 18 18 18 18 18 18 18
23 23 23 23 23 22 22 22 21 21 21 21 21 20 20 20 20 20 19 19 19 19 19 19 19 19 19 19 19 19 19 19 19 19 19 19 18 18 18 18 18 18 18
23 23 23 23 23 22 22 21 21 21 21 21 20 20 20 20 20 19 19 19 19 18 18 18 18 19 19 19 19 19 19 19 19 19 19 19 19 18 18 18 18 18 18
23 23 23 23 23 22 22 21 21 21 21 20 20 20 20 20 19 19 19 19 19 18 18 18 18 18 18 18 18 18 18 18 18 18 19 19 19 18 18 18 18 18 18
23 23 23 23 22 22 22 21 21 21 20 20 20 20 19 19 19 19 19 18 18 18 18 18 18 18 18 18 18 18 18 18 18 18 18 18 18 18 18 18 18 18 18
23 23 23 22 22 22 21 21 20 20 20 20 20 19 19 19 19 19 18 18 18 18 18 18 18 18 18 18 18 18 18 18 18 18 18 18 18 18 18 18 18 18 18
23 23 23 22 22 21 21 21 20 20 20 19 19 19 19 19 18 18 18 18 18 18 18 18 18 17 17 17 18 18 18 18 18 18 18 18 18 18 18 18 18 18 18
22 22 22 22 21 21 21 20 20 20 19 19 19 19 19 19 19 18 18 18 18 18 18 17 17 17 17 17 17 17 17 17 17 17 17 18 18 18 18 18 18 18 18
22 21 21 20 20 20 20 20 20 20 19 19 19 19 19 19 19 18 18 18 18 18 17 17 17 17 17 17 17 17 17 17 17 17 18 18 18 18 18 18 18 18 18
21 20 19 19 20 20 20 20 20 19 19 19 19 19 19 19 19 19 18 18 18 17 17 17 17 17 17 17 17 17 17 17 18 18 18 18 18 18 18 18 18 18 17
19 19 18 19 19 19 19 19 19 19 19 19 19 19 19 19 19 19 19 18 18 18 17 17 17 17 17 17 17 17 17 18 18 18 18 18 18 17 17 17 17 17 17
18 18 18 18 18 18 18 18 18 18 19 19 19 19 19 19 19 19 19 19 18 18 18 18 17 17 17 17 17 17 18 18 18 18 18 17 17 17 17 17 17 17 17
18 18 18 18 17 18 18 18 18 18 18 18 18 19 19 19 19 19 19 18 18 18 18 18 18 17 17 17 16 16 17 17 17 17 17 17 17 17 17 17 17 17 17
18 18 18 18 17 17 18 18 18 18 18 18 18 18 18 18 18 18 18 18 18 18 18 18 18 18 17 17 16 16 15 15 16 17 17 17 17 17 17 17 17 17 17
17 17 17 17 17 17 17 17 18 18 18 17 17 17 17 17 18 18 18 18 18 18 18 18 18 17 17 17 17 16 15 15 14 15 16 16 17 17 17 17 17 17 17
16 16 16 16 16 17 17 17 17 17 17 17 17 17 17 17 17 17 17 17 17 17 17 17 17 17 17 17 17 16 16 15 15 14 14 16 16 16 16 16 16 17 17
16 16 16 16 16 16 16 16 16 16 16 17 16 16 16 16 16 16 16 16 16 16 16 16 17 17 17 16 16 16 15 15 15 14 14 14 15 16 16 16 16 16 16
Wind_Speed
12 16 23 22 21 20 19 19 18 18 18 18 18 18 18 18 18 18 18 17 16 15 15 14 13 13 13 14 14 15 15 15 15 15 15 15 14 13 13 14 15 13 15
16 20 24 23 22 21 20 19 19 18 18 17 17 17 17 17 17 17 16 16 15 14 13 13 12 12 12 12 12 13 13 13 13 13 13 13 12 12 12 14 14 12 14
20 19 23 24 23 22 20 20 19 18 18 18 17 17 16 16 16 16 15 14 14 13 12 12 11 11 10 10 10 10 10 10 10 10 10 9 10 11 13 15 15 14 14
20 19 21 24 23 22 21 20 19 18 18 17 17 17 16 16 15 15 14 13 13 12 11 11 10 10 9 8 8 7 7 7 6 7 7 8 8 11 14 16 15 14 13
16 17 22 25 24 23 21 20 19 19 18 17 17 16 16 15 15 14 13 13 12 12 11 10 10 9 8 7 6 6 5 5 5 4 4 7 9 12 14 15 15 14 13
15 16 22 25 24 23 22 21 20 19 18 17 17 16 15 15 14 14 13 12 12 11 11 10 10 9 8 8 7 6 6 5 5 5 5 7 11 15 16 16 16 15 15
15 15 21 25 24 23 22 21 20 19 18 18 17 16 15 15 14 14 13 12 12 11 11 11 10 10 10 9 9 8 8 8 7 6 6 7 12 18 18 18 18 17 16
19 15 19 25 24 23 22 21 20 19 19 18 17 16 16 15 14 14 13 13 13 12 12 12 12 11 11 11 11 10 10 10 8 7 6 8 13 19 20 20 20 19 18
17 15 14 19 22 23 22 21 20 20 19 18 18 17 16 16 15 14 14 14 14 14 14 14 14 14 13 13 13 13 12 12 11 9 9 7 12 19 21 21 20 20 19
15 15 12 14 16 17 19 21 21 20 19 19 18 18 17 16 15 15 15 15 16 16 16 16 16 15 15 15 15 15 14 14 12 12 10 11 12 18 22 22 21 20 20
14 13 13 12 12 14 15 19 20 20 19 19 18 18 17 14 14 14 16 17 18 18 19 18 18 17 16 16 17 17 15 12 11 11 12 14 16 18 22 23 22 21 21
16 15 13 13 12 12 14 14 14 15 15 16 14 15 14 13 14 14 16 19 20 21 21 21 20 18 17 13 15 16 13 12 12 12 14 18 18 20 22 23 23 22 21
17 16 15 14 13 12 9 9 9 10 11 13 14 15 13 12 11 12 10 12 15 17 16 16 17 14 13 11 10 11 12 12 11 12 14 18 20 20 23 25 24 24 22
17 17 16 15 13 12 9 7 8 7 7 9 13 15 11 6 6 6 6 7 7 8 7 8 7 10 11 13 11 10 11 10 11 12 14 19 22 22 23 25 26 25 23
16 17 17 15 14 12 10 8 9 8 8 10 11 13 13 7 7 5 4 4 5 5 5 4 5 7 8 8 9 8 8 9 11 13 13 18 20 21 22 24 26 25 24
11 13 14 14 13 11 9 8 7 6 6 7 7 10 12 8 5 5 4 3 3 4 4 4 6 6 6 5 7 7 7 7 10 12 13 15 18 20 23 24 25 24 24
1 5 10 11 10 10 9 8 5 4 4 3 4 7 9 8 5 4 3 3 3 4 4 3 3 3 4 4 6 6 5 6 7 8 11 12 13 17 22 24 25 25 25
5 4 2 6 4 5 5 5 3 2 2 2 3 5 6 7 6 4 3 2 2 2 1 1 2 2 3 3 4 5 5 5 7 7 8 10 11 13 17 23 25 26 26
5 4 4 3 2 1 1 2 2 2 2 2 3 4 4 5 5 3 3 2 1 1 1 1 1 1 2 3 4 5 5 6 7 7 7 8 11 13 13 17 22 24 26
7 5 4 6 6 5 2 3 2 1 0 1 2 4 5 5 5 3 3 2 2 2 1 0 1 1 2 3 4 5 5 6 6 6 8 7 8 11 13 14 14 17 22
6 6 5 6 4 2 1 1 1 2 2 2 3 5 6 6 5 4 3 3 3 2 1 1 1 0 1 1 1 4 5 5 5 5 5 5 6 7 8 9 10 11 12
3 4 5 3 2 2 0 1 2 1 2 2 2 3 5 6 6 5 5 4 3 3 2 1 2 1 1 0 1 1 4 5 4 3 3 3 4 4 5 7 8 9 10
5 3 3 3 2 2 2 0 0 2 2 2 1 1 3 4 5 5 6 5 4 3 3 3 3 3 2 1 1 2 1 3 4 4 3 3 3 3 4 4 6 8 10
6 6 5 4 3 3 3 2 2 1 0 1 2 2 2 3 3 4 5 6 6 4 4 4 4 3 3 2 1 2 3 3 2 4 4 4 5 5 5 5 5 5 7
7 6 6 6 6 5 4 4 3 2 1 2 1 2 2 2 2 2 4 4 5 5 5 5 4 4 4 4 3 2 2 2 4 4 5 5 4 4 4 5 4 4 4
6 6 6 7 7 7 7 6 6 5 4 4 5 4 4 3 3 4 3 3 4 4 5 5 6 6 5 5 4 4 4 3 3 4 5 5 5 5 5 4 4 3 3
Wind_Direction
157 160 154 149 147 145 142 138 134 130 128 126 123 121 119 118 119 120 123 124 123 122 121 120 119 118 117 116 116 117 118 120 121 123 123 121 120 122 124 126 124 121 121
153 158 153 150 149 148 146 143 140 137 135 133 130 128 126 125 125 124 125 127 127 127 125 125 124 123 123 122 121 121 122 124 126 126 127 126 123 123 129 133 130 132 129
149 155 153 151 150 150 149 148 145 143 141 139 137 135 133 132 131 131 131 131 132 132 131 131 131 130 129 128 128 127 127 129 132 134 134 136 135 129 127 134 136 137 135
148 152 153 152 152 153 153 152 150 148 147 145 144 142 141 140 140 139 139 139 140 140 141 141 140 140 141 141 141 140 140 142 147 153 158 166 164 150 141 140 143 144 143
146 151 156 155 155 156 156 156 155 154 152 152 150 149 149 148 148 148 148 149 150 152 153 155 155 156 158 162 165 168 171 175 184 197 207 205 192 172 161 154 153 154 153
148 153 159 157 158 159 160 161 161 159 159 158 158 158 157 157 158 158 159 161 163 165 167 169 172 174 178 185 193 203 212 218 223 234 246 226 200 188 177 169 164 163 164
151 157 162 161 162 163 164 165 166 165 165 165 166 167 167 168 168 170 171 174 177 179 181 185 188 191 196 202 210 221 232 242 246 244 246 228 204 195 187 180 174 172 173
156 160 164 165 166 167 169 170 171 171 171 172 174 176 177 179 181 183 185 188 191 194 197 200 203 205 209 214 220 228 237 247 257 257 250 234 214 204 195 189 183 181 181
158 162 166 169 170 172 174 175 177 177 179 180 182 185 187 190 193 196 199 201 204 207 209 212 214 217 219 221 225 232 239 246 254 265 270 259 224 211 203 196 191 189 189
161 167 170 170 172 174 178 181 183 185 186 188 191 193 196 200 204 208 211 215 217 218 219 221 223 225 226 227 230 234 240 247 250 255 260 262 246 221 211 204 199 196 196
167 174 175 174 174 176 179 187 189 192 194 196 199 202 203 208 212 217 222 225 227 228 227 226 227 230 231 233 235 237 241 240 239 247 252 254 250 233 221 212 206 202 201
175 181 181 180 179 179 186 190 193 197 201 202 204 207 208 210 216 224 230 233 235 235 233 231 229 231 233 234 237 240 240 237 237 244 248 250 249 240 228 219 213 209 206
179 180 183 184 182 184 192 187 194 202 203 208 210 211 213 216 224 232 234 241 242 240 236 235 232 229 228 227 229 232 235 238 239 242 248 253 254 246 234 225 217 213 211
179 184 183 185 184 189 192 189 192 200 202 208 215 214 211 214 220 226 229 234 231 228 223 226 223 226 229 230 229 230 236 237 238 239 247 255 255 248 235 227 220 218 215
183 185 183 183 184 187 190 193 196 202 205 209 210 212 209 210 218 222 226 223 217 213 216 223 224 229 230 233 236 233 233 234 238 237 240 248 246 242 234 226 223 221 221
184 186 184 185 184 180 182 186 190 195 198 199 204 206 203 204 203 203 212 213 209 205 204 211 220 226 227 229 239 237 235 235 236 238 239 242 242 240 233 228 226 225 226
183 186 180 183 180 175 174 177 181 183 171 181 184 180 178 186 190 188 197 216 222 215 207 211 226 222 231 238 246 246 242 237 237 239 239 237 239 239 236 233 229 228 229
30 11 228 172 167 176 167 163 157 146 142 155 150 148 158 168 172 167 171 213 225 212 200 217 229 239 251 252 254 255 252 247 247 244 242 239 236 238 238 238 236 233 233
53 32 333 19 71 42 143 118 108 122 139 138 133 137 150 157 159 155 168 185 164 130 154 229 203 210 252 268 267 262 255 248 248 252 246 240 237 235 236 239 239 239 239
42 43 357 25 19 11 0 42 21 52 117 157 155 161 165 164 159 150 156 155 130 119 99 110 211 233 240 261 280 283 269 258 251 247 247 247 242 240 238 240 240 243 243
37 61 58 53 5 290 219 119 214 227 220 217 204 181 171 165 161 158 164 152 137 139 169 182 174 275 285 299 333 314 300 280 265 254 248 248 248 247 244 237 236 236 240
86 91 101 81 342 20 203 201 225 215 241 238 239 201 188 173 170 164 169 170 159 153 140 147 145 144 267 74 136 332 331 333 328 299 283 260 260 257 251 245 236 231 234
58 57 84 89 65 4 309 336 318 31 20 7 327 251 219 196 184 173 182 180 178 173 185 189 168 162 203 270 173 169 198 278 307 310 307 303 300 287 274 260 242 236 234
44 44 54 60 52 13 5 40 103 102 74 278 271 272 258 225 208 198 198 197 192 187 193 202 181 173 170 228 272 209 200 200 247 303 310 309 307 298 292 283 265 245 238
49 49 42 45 38 20 22 27 41 43 333 305 329 336 319 303 278 247 213 202 203 199 202 204 194 195 189 198 210 222 236 232 218 232 282 302 312 296 289 277 267 257 241
52 52 48 45 34 21 22 20 21 19 1 0 355 344 327 315 307 307 272 227 214 208 212 215 208 208 209 213 215 210 210 221 224 225 255 279 288 286 287 279 264 253 232
Height
1514 1518 1521 1524 1526 1527 1528 1529 1530 1531 1532 1534 1535 1536 1537 1538 1540 1541 1542 1543 1543 1544 1545 1546 1546 1547 1547 1548 1548 1549 1549 1549 1550 1550 1550 1551 1551 1551 1551 1552 1552 1552 1553
1512 1517 1521 1523 1525 1527 1528 1529 1530 1531 1533 1534 1535 1536 1538 1539 1540 1541 1542 1543 1544 1545 1546 1546 1547 1548 1548 1549 1549 1550 1550 1551 1551 1551 1552 1552 1553 1553 1553 1553 1553 1554 1554
1512 1516 1520 1523 1525 1526 1528 1529 1530 1531 1533 1534 1535 1537 1538 1539 1540 1541 1542 1543 1544 1545 1546 1547 1547 1548 1549 1549 1550 1550 1551 1551 1552 1552 1553 1553 1553 1554 1554 1554 1554 1555 1555
1512 1515 1518 1522 1524 1526 1527 1529 1530 1531 1533 1534 1535 1537 1538 1539 1540 1541 1542 1543 1544 1545 1546 1547 1548 1548 1549 1550 1550 1551 1551 1552 1552 1552 1553 1553 1554 1554 1555 1555 1555 1555 1556
1512 1515 1518 1521 1523 1525 1526 1528 1529 1531 1532 1534 1535 1536 1538 1539 1540 1541 1542 1543 1544 1545 1546 1546 1547 1548 1549 1549 1550 1551 1551 1552 1552 1552 1553 1553 1553 1554 1555 1556 1556 1556 1556
1512 1514 1517 1520 1522 1524 1526 1527 1529 1530 1532 1533 1535 1536 1537 1538 1539 1540 1541 1542 1543 1544 1544 1545 1546 1547 1548 1548 1549 1550 1550 1551 1551 1552 1552 1552 1553 1554 1555 1555 1556 1556 1557
1511 1514 1516 1519 1521 1523 1524 1526 1528 1529 1531 1532 1534 1535 1536 1537 1538 1539 1540 1541 1542 1542 1543 1544 1544 1545 1546 1547 1547 1548 1549 1550 1550 1551 1551 1551 1552 1553 1554 1555 1555 1556 1556
1510 1513 1515 1518 1520 1522 1523 1525 1526 1528 1529 1531 1532 1534 1535 1536 1537 1538 1538 1539 1540 1541 1541 1542 1542 1543 1544 1544 1545 1546 1547 1547 1548 1549 1549 1550 1551 1552 1553 1554 1554 1555 1555
1510 1512 1514 1516 1518 1520 1522 1524 1525 1527 1528 1529 1531 1532 1533 1534 1535 1536 1537 1537 1538 1539 1539 1540 1540 1541 1541 1542 1543 1543 1544 1545 1546 1546 1547 1548 1549 1550 1551 1552 1553 1553 1554
1510 1511 1513 1515 1517 1519 1521 1523 1524 1526 1527 1528 1529 1530 1531 1532 1533 1534 1535 1536 1536 1537 1537 1538 1538 1539 1539 1540 1540 1541 1541 1542 1543 1544 1544 1546 1546 1547 1549 1550 1551 1552 1552
1509 1510 1512 1514 1516 1518 1520 1522 1523 1524 1525 1526 1527 1528 1529 1530 1531 1532 1533 1533 1534 1534 1535 1535 1536 1536 1537 1537 1538 1538 1539 1539 1540 1541 1542 1543 1544 1545 1546 1547 1548 1549 1550
1506 1508 1511 1513 1515 1517 1519 1520 1522 1523 1524 1525 1526 1527 1528 1529 1529 1530 1531 1531 1531 1532 1532 1533 1533 1533 1534 1534 1535 1535 1536 1537 1537 1538 1539 1540 1541 1542 1543 1544 1545 1546 1547
1505 1507 1510 1512 1514 1516 1517 1519 1520 1521 1522 1523 1524 1525 1526 1527 1527 1528 1528 1529 1529 1529 1529 1530 1530 1531 1531 1531 1532 1532 1533 1534 1534 1535 1536 1537 1538 1538 1539 1540 1542 1543 1544
1503 1506 1508 1511 1513 1515 1516 1518 1519 1520 1520 1521 1522 1523 1524 1524 1525 1525 1526 1526 1526 1527 1527 1527 1527 1528 1528 1528 1529 1529 1530 1530 1531 1532 1532 1533 1534 1534 1535 1536 1538 1539 1540
1502 1504 1506 1509 1511 1513 1514 1516 1517 1518 1519 1519 1520 1521 1521 1522 1522 1523 1523 1523 1524 1524 1524 1524 1524 1524 1525 1524 1525 1525 1526 1527 1528 1528 1528 1529 1530 1531 1531 1532 1534 1535 1536
1502 1504 1506 1508 1509 1510 1512 1513 1514 1516 1517 1517 1517 1518 1518 1518 1519 1519 1519 1520 1520 1520 1520 1520 1520 1520 1521 1521 1521 1521 1521 1522 1523 1524 1524 1524 1525 1526 1527 1528 1529 1530 1531
1503 1504 1505 1506 1507 1508 1509 1511 1512 1513 1514 1515 1515 1515 1515 1516 1516 1516 1516 1517 1517 1517 1516 1516 1516 1516 1516 1516 1516 1517 1517 1517 1518 1519 1519 1519 1520 1521 1522 1523 1524 1525 1526
1501 1504 1506 1505 1505 1507 1507 1507 1509 1511 1512 1512 1512 1512 1512 1513 1513 1513 1513 1513 1513 1513 1513 1513 1512 1512 1512 1512 1512 1512 1512 1513 1513 1513 1514 1514 1514 1515 1516 1517 1519 1520 1521
1497 1498 1500 1500 1501 1503 1504 1505 1507 1509 1510 1509 1510 1510 1510 1510 1510 1511 1510 1510 1509 1509 1509 1509 1509 1509 1509 1508 1508 1507 1507 1507 1507 1508 1508 1509 1509 1510 1511 1512 1513 1514 1515
1497 1497 1500 1497 1498 1499 1502 1503 1504 1506 1507 1507 1508 1508 1509 1509 1509 1508 1508 1507 1506 1506 1506 1506 1506 1505 1505 1505 1504 1503 1502 1502 1502 1503 1503 1503 1504 1505 1505 1506 1507 1508 1509
1498 1497 1495 1495 1496 1497 1499 1502 1503 1503 1503 1504 1505 1507 1507 1507 1506 1506 1506 1505 1504 1503 1503 1503 1503 1503 1502 1501 1500 1499 1498 1498 1498 1498 1498 1499 1499 1500 1500 1500 1501 1502 1503
1496 1494 1495 1497 1496 1493 1496 1500 1502 1501 1501 1501 1503 1505 1504 1504 1504 1503 1503 1502 1501 1501 1500 1500 1500 1499 1499 1498 1497 1496 1494 1494 1494 1494 1495 1495 1495 1495 1495 1495 1496 1497 1497
1496 1497 1496 1497 1496 1495 1498 1499 1500 1500 1500 1500 1501 1501 1502 1501 1501 1500 1500 1499 1499 1499 1498 1497 1497 1496 1496 1496 1495 1494 1493 1492 1490 1490 1491 1491 1491 1491 1491 1491 1491 1491 1491
1497 1498 1497 1497 1497 1498 1498 1499 1499 1498 1498 1498 1499 1499 1498 1498 1497 1497 1497 1496 1496 1495 1495 1494 1494 1493 1493 1492 1492 1491 1491 1490 1490 1487 1486 1487 1487 1487 1486 1486 1486 1486 1486
1499 1498 1498 1498 1498 1498 1498 1498 1497 1496 1496 1496 1496 1495 1495 1494 1494 1493 1492 1492 1492 1492 1491 1491 1490 1490 1489 1489 1488 1488 1487 1487 1486 1485 1482 1481 1482 1482 1482 1482 1481 1481 1481
1500 1500 1500 1499 1498 1497 1497 1496 1495 1494 1493 1492 1492 1491 1490 1489 1489 1488 1487 1487 1486 1486 1486 1486 1486 1486 1485 1485 1484 1484 1483 1482 1482 1481 1479 1477 1477 1477 1477 1477 1477 1477 1477